Powrót do katalogu

MALLIGYONG-1

AktywnyMilitariaSSO
NORAD 58400·PAYLOAD·🇰🇵 North Korea

Wystrzelony Nov 21, 2023 z Sohae Satellite Launching Station

Loading…

Następne Przeloty (najbliższe 24 godziny)

TLE

ŚwieżeSource: Space-Track

Epoka: Sep 14, 2026, 22:13 UTC

1 58400U 23179A   26257.92602625  .00002657  00000-0  11552-3 0  9990
2 58400  97.2858 136.8952 0010089  75.5965 284.6391 15.23075490156413

Śledź MALLIGYONG-1 w czasie rzeczywistym z AllMySat

Download on the App Store